Terminal Aerodrome Forecast
Issued by NWS Twin Cities, MN

Home | Current Version | Previous Version | Graphics & Text | Print | Product List | Glossary On
Versions: 1 2 3 4 5 6 7 8 9 10 11 12 13 14 15
000
FTUS43 KMPX 042331
TAFEAU
TAF
KEAU 042331Z 0500/0524 31013G19KT P6SM SCT035
     FM050200 29007KT P6SM SKC
     FM050900 27005KT P6SM SKC=

USA.gov is the U.S. government's official web portal to all federal, state and local government web resources and services.